Weather History for VTUU - October, 2012

Change the Weather History Date:

Monday, October 1, 2012

  Actual Average Record
Temperature  
Mean Temperature 82 °F -  
Max Temperature 89 °F 88 °F - ()
Min Temperature 74 °F 72 °F - ()
Cooling Degree Days 16    
Growing Degree Days 32 (Base 50)    
Moisture  
Dew Point 72 °F    
Average Humidity 70    
Maximum Humidity 89    
Minimum Humidity 47    
Precipitation  
Precipitation 0.00 in 0.13 in - ()
Sea Level Pressure  
Sea Level Pressure 29.84 in    
Wind  
Wind Speed 3 mph ()    
Max Wind Speed 6 mph    
Max Gust Speed -    
Visibility 3.6 miles    
Events      
T = Trace of Precipitation, MM = Missing Value Source: Averaged Metar Reports

Daily Weather History Graph

Daily Weather History Graph

Search for Another Location

Airport or City:

Trip Planner

Search our weather history database for the weather conditions in past years. The results will help you decide how hot, cold, wet, or windy it might be!

Date:

Astronomy

Oct. 01, 2012 Rise Set
Actual Time 5:50 AM ICT 5:49 PM ICT
Civil Twilight 5:28 AM ICT 6:11 PM ICT
Nautical Twilight 5:04 AM ICT 6:36 PM ICT
Astronomical Twilight 4:39 AM ICT 7:00 PM ICT
Moon 6:29 PM ICT (10/1) 6:30 AM ICT (10/1)
Length of Visible Light 12h 42m
Length of Day
11h 59m
Full, 99% of the Moon is Illuminated
Oct 1
Full
Oct 8
Last Quarter
Oct 15
New
Oct 22
First Quarter
Oct 30
Full

Hourly Weather History & Observations

Time (ICT) Temp. Heat Index Dew Point Humidity Pressure Visibility Wind Dir Wind Speed Gust Speed Precip Events Conditions
1:00 AM 77 °F - 69 °F 70% 29.84 in 4 mi NNE 2.3 mph - -   Mist
1:00 AM 77.0 °F - 69.8 °F 78% 29.83 in 3.7 mi NNE 2.3 mph - N/A   Unknown
3:00 AM 75.2 °F - 69.8 °F 83% 29.83 in 4.3 mi NE 2.3 mph - N/A   Unknown
4:00 AM 75.2 °F - 69.8 °F 83% 29.83 in 3.7 mi NNE 3.5 mph - N/A   Mostly Cloudy
6:00 AM 75.2 °F - 71.6 °F 89% 29.86 in 2.5 mi NE 3.5 mph - N/A   Mostly Cloudy
7:00 AM 76 °F - 70 °F 76% 29.87 in 2 mi NE 5.8 mph - -   Mist
7:00 AM 77.0 °F - 69.8 °F 78% 29.86 in 2.5 mi NE 5.8 mph - N/A   Overcast
8:00 AM 77.0 °F - 69.8 °F 78% 29.89 in 2.5 mi NE 5.8 mph - N/A   Overcast
9:00 AM 80.6 °F 83.9 °F 69.8 °F 70% 29.92 in 3.1 mi NE 3.5 mph - N/A   Overcast
10:00 AM 84.2 °F 88.4 °F 69.8 °F 62% 29.92 in 3.7 mi NE 5.8 mph - N/A   Mostly Cloudy
11:00 AM 86.0 °F 93.4 °F 73.4 °F 66% 29.89 in 3.7 mi NNW 3.5 mph - N/A   Mostly Cloudy
12:00 PM 87.8 °F 93.8 °F 71.6 °F 58% 29.86 in 3.7 mi South 2.3 mph - N/A   Mostly Cloudy
1:00 PM 88 °F - 70 °F 47% 29.83 in 4 mi NW 4.6 mph - -   Haze
1:00 PM 87.8 °F 92.6 °F 69.8 °F 55% 29.83 in 4.3 mi NW 4.6 mph - N/A   Mostly Cloudy
2:00 PM 87.8 °F 92.6 °F 69.8 °F 55% 29.80 in 4.3 mi North 4.6 mph - N/A   Mostly Cloudy
3:00 PM 87.8 °F 93.8 °F 71.6 °F 58% 29.80 in 4.3 mi NW 4.6 mph - N/A   Mostly Cloudy
4:00 PM 87.8 °F 92.6 °F 69.8 °F 55% 29.77 in 4.3 mi NNW 3.5 mph - N/A   Mostly Cloudy
5:00 PM 86.0 °F 91.8 °F 71.6 °F 62% 29.77 in 3.7 mi North 2.3 mph - N/A   Mostly Cloudy
5:30 PM 86.0 °F 91.8 °F 71.6 °F 62% 29.77 in 3.7 mi North 2.3 mph - N/A   Mostly Cloudy
6:00 PM 86.0 °F 91.8 °F 71.6 °F 62% 29.80 in 3.7 mi SE 2.3 mph - N/A   Mostly Cloudy
7:00 PM 84 °F - 74 °F 66% 29.84 in 4 mi NE 2.3 mph - -   Mist
7:00 PM 84.2 °F 92.3 °F 75.2 °F 74% 29.83 in 3.7 mi NE 2.3 mph - N/A   Mostly Cloudy
8:00 PM 82.4 °F 89.5 °F 75.2 °F 79% 29.83 in 3.7 mi Calm Calm - N/A   Mostly Cloudy
9:00 PM 82.4 °F 90.9 °F 77.0 °F 84% 29.86 in 3.7 mi Calm Calm - N/A   Mostly Cloudy
10:00 PM 82.4 °F 90.9 °F 77.0 °F 84% 29.89 in 3.7 mi Calm Calm - N/A   Mostly Cloudy
11:00 PM 82.4 °F 89.5 °F 75.2 °F 79% 29.89 in 3.7 mi NE 2.3 mph - N/A   Mostly Cloudy